User: anonymous   Login
Location: Fort Wayne
(41.1310°N, 85.1290°W)
Time: 22:53:18
(UTC-04:00)
Language:

ISS - Orbit

View from above orbital plane
View from above orbital plane
View from above satellite
View from above satellite

Ground track
Ground track

The orbit data is extracted from the following two-line orbital elements,

1 25544U 98067A   15214.93154125  .00005398  00000-0  86080-4 0  9994
2 25544 051.6430 210.6270 0001316 036.8118 047.3273 15.54974645955316
Epoch (UTC): 02 August 2015 22:21:25
Eccentricity: 0.0001316
inclination: 51.6430°
perigee height: 401 km
apogee height: 403 km
right ascension of ascending node: 210.6270°
argument of perigee: 36.8118°
revolutions per day: 15.54974645
mean anomaly at epoch: 47.3273°
orbit number at epoch: 95531

The dashed part of the orbit path shows where the satellite is in the earth's shadow,  

DLR